time_stamp(utc),avg(mph),gust(mph),direction(deg),12m_air_temp(f),sonic_u(cm/s),sonic_v(cm/s),sonic_w(cm/s),pressure,2m_air_temp(f),pyranometer(W/m^2)
"2020-12-14 00:02:39+00",10.8,12.8,,51,-276,398,18,1016.46,49.6,0
"2020-12-14 00:07:39+00",11.0,12.0,,50.6,-247,422,15,1016.51,49.3,0
"2020-12-14 00:12:39+00",11.8,13.8,,50.6,-284,449,13,1016.54,49.1,0
"2020-12-14 00:17:39+00",11.9,12.9,,50.4,-280,445,16,1016.63,49,0
"2020-12-14 00:22:39+00",11.1,12.1,,50.2,-268,419,17,1016.7,48.8,0
"2020-12-14 00:27:39+00",11.1,12.1,,49.9,-279,413,18,1016.71,48.5,0
"2020-12-14 00:32:39+00",11.6,13.6,,49.7,-278,426,22,1016.81,48.3,0
"2020-12-14 00:37:39+00",13.5,15.5,,49.7,-298,520,8,1016.95,48.3,0
"2020-12-14 00:42:39+00",13.0,14.0,,49.6,-320,484,13,1016.89,48.3,0
"2020-12-14 00:47:39+00",13.3,16.3,,49.5,-362,480,23,1016.83,48.4,0
"2020-12-14 00:52:39+00",13.1,15.1,,49.3,-355,470,24,1016.96,48.3,0
"2020-12-14 00:57:39+00",13.3,15.3,,49.2,-337,489,36,1016.93,48.2,0
"2020-12-14 01:02:39+00",12.7,16.7,,48.9,-367,447,16,1017.1,48,0
"2020-12-14 01:07:39+00",12.2,13.2,,48.9,-351,402,26,1017.23,47.9,0
"2020-12-14 01:12:39+00",11.4,12.4,,48.8,-350,381,32,1017.15,47.7,0
"2020-12-14 01:17:39+00",12.5,13.5,,48.5,-365,412,19,1017.24,47.5,0
"2020-12-14 01:22:39+00",12.5,13.5,,48.6,-373,404,26,1017.27,47.4,0
"2020-12-14 01:27:39+00",12.4,14.4,,48.4,-372,415,15,1017.3,47.3,0
"2020-12-14 01:32:39+00",12.1,14.1,,48.2,-384,395,39,1017.38,47.2,0
"2020-12-14 01:37:39+00",11.9,13.9,,48.1,-383,365,22,1017.29,47.1,0
"2020-12-14 01:42:39+00",11.4,13.4,,48,-386,350,24,1017.38,47,0
"2020-12-14 01:47:39+00",11.3,13.3,,48,-383,337,25,1017.38,46.9,0
"2020-12-14 01:52:39+00",11.1,12.1,,47.8,-393,319,34,1017.35,46.8,0
"2020-12-14 01:57:39+00",12.8,14.8,,47.7,-425,393,22,1017.43,46.7,0
"2020-12-14 02:02:39+00",11.9,13.9,,47.6,-390,361,33,1017.18,46.6,0
"2020-12-14 02:07:39+00",12.2,14.2,,47.4,-383,382,29,1017.11,46.4,0
"2020-12-14 02:12:39+00",11.0,13.0,,47.3,-343,360,22,1017.04,46.3,0
"2020-12-14 02:17:39+00",10.8,11.8,,47,-317,359,25,1016.95,46,0
"2020-12-14 02:22:39+00",12.6,15.6,,46.9,-351,444,13,1016.9,45.8,0
"2020-12-14 02:27:39+00",11.8,13.8,,46.8,-325,412,16,1016.86,45.7,0
"2020-12-14 02:32:39+00",12.0,13.0,,46.8,-359,392,30,1016.92,45.6,0
"2020-12-14 02:37:39+00",11.4,12.4,,46.6,-336,374,17,1016.86,45.5,0
"2020-12-14 02:42:39+00",11.6,12.6,,46.6,-334,395,18,1016.81,45.5,0
"2020-12-14 02:47:39+00",10.1,12.1,,46.5,-294,326,22,1016.74,45.4,0
"2020-12-14 02:52:39+00",9.8,11.8,,46.5,-293,319,14,1016.83,45.4,0
"2020-12-14 02:57:39+00",9.7,11.7,,46.4,-273,343,16,1016.76,45.3,0
"2020-12-14 03:02:39+00",9.6,11.6,,46.4,-266,321,19,1016.81,45.2,0
"2020-12-14 03:07:39+00",8.6,10.6,,46.2,-223,291,5,1016.69,45.1,0
"2020-12-14 03:12:39+00",9.8,10.8,,46.1,-254,347,14,1016.63,44.9,0
"2020-12-14 03:17:39+00",10.5,11.5,,45.8,-287,375,15,1016.7,44.6,0
"2020-12-14 03:22:39+00",11.0,12.0,,45.7,-307,375,19,1016.61,44.4,0
"2020-12-14 03:27:39+00",10.4,11.4,,45.4,-264,375,17,1016.4,44.1,0
"2020-12-14 03:32:39+00",8.6,9.6,,45.1,-236,306,11,1016.42,43.8,0
"2020-12-14 03:37:39+00",5.4,6.4,,44.8,-137,177,1,1016.28,43.7,0
"2020-12-14 03:42:39+00",4.4,5.4,,44.6,-82,168,-3,1016.13,43.5,0
"2020-12-14 03:47:39+00",5.0,6.0,,44.7,-131,167,1,1016.18,43.2,0
"2020-12-14 03:52:39+00",7.0,7.0,,44.7,-195,235,12,1016.25,42.9,0
"2020-12-14 03:57:39+00",8.0,9.0,,44.9,-230,264,15,1016.37,42.8,0
"2020-12-14 04:02:39+00",8.8,9.8,,45,-304,254,16,1016.6,42.7,0
"2020-12-14 04:07:39+00",8.0,10.0,,45.2,-303,199,7,1016.7,42.8,0
"2020-12-14 04:12:39+00",7.4,8.4,,44.8,-264,187,12,1016.81,43.1,0
"2020-12-14 04:17:39+00",8.3,9.3,,44.7,-282,251,15,1017.07,43.1,0
"2020-12-14 04:22:39+00",6.7,7.7,,44.7,-246,168,19,1017.14,43.1,0
"2020-12-14 04:27:39+00",8.0,9.0,,44.5,-285,221,20,1017.18,43.1,0
"2020-12-14 04:32:39+00",8.2,9.2,,44.4,-293,227,15,1017.38,43.1,0
"2020-12-14 04:37:39+00",7.6,8.6,,44.2,-282,189,19,1017.27,43,0
"2020-12-14 04:42:39+00",6.6,7.6,,44,-241,184,10,1017.14,42.9,0
"2020-12-14 04:47:39+00",7.9,8.9,,44,-263,227,16,1017.08,42.8,0
"2020-12-14 04:52:39+00",7.4,8.4,,43.9,-243,213,14,1017.15,42.8,0
"2020-12-14 04:57:39+00",7.2,8.2,,43.9,-242,206,16,1017.29,42.7,0
"2020-12-14 05:02:39+00",7.0,8.0,,43.8,-223,219,10,1017.24,42.6,0
"2020-12-14 05:07:39+00",7.2,8.2,,43.7,-213,238,11,1017.13,42.5,0
"2020-12-14 05:12:39+00",6.5,7.5,,43.5,-144,240,9,1016.85,42.3,0
"2020-12-14 05:17:39+00",4.7,4.7,,43.3,-77,190,-3,1016.62,42,0
"2020-12-14 05:22:39+00",4.6,5.6,,43,-112,159,2,1016.77,41.8,0
"2020-12-14 05:27:39+00",4.4,5.4,,42.8,-104,154,1,1016.68,41.5,0
"2020-12-14 05:32:39+00",4.4,4.4,,42.8,-108,152,1,1016.57,41.2,0
"2020-12-14 05:37:39+00",4.4,5.4,,42.8,-106,164,-1,1016.4,40.9,0
"2020-12-14 05:42:39+00",4.9,5.9,,42.9,-105,176,5,1016.23,40.7,0
"2020-12-14 05:47:39+00",5.7,5.7,,42.9,-157,193,9,1016.36,40.6,0
"2020-12-14 05:52:39+00",5.2,5.2,,43,-174,149,10,1016.36,40.5,0
"2020-12-14 05:57:39+00",5.5,6.5,,43.1,-188,160,7,1016.33,40.4,0
"2020-12-14 06:02:39+00",6.0,7.0,,43.1,-221,133,10,1016.27,40.4,0
"2020-12-14 06:07:39+00",6.8,7.8,,43.1,-196,216,13,1016.17,40.6,0
"2020-12-14 06:12:39+00",7.0,7.0,,43.1,-211,221,11,1016.36,40.9,0
"2020-12-14 06:17:39+00",5.9,6.9,,43.1,-202,162,9,1016.53,41.2,0
"2020-12-14 06:22:39+00",6.8,7.8,,43,-274,137,13,1016.63,41.3,0
"2020-12-14 06:27:39+00",7.3,9.3,,43,-246,218,15,1016.44,41.6,0
"2020-12-14 06:32:39+00",6.9,7.9,,43.1,-219,221,18,1016.49,41.9,0
"2020-12-14 06:37:39+00",6.1,7.1,,42.9,-185,190,8,1016.59,42.1,0
"2020-12-14 06:42:39+00",6.7,7.7,,42.8,-216,193,8,1016.51,42.1,0
"2020-12-14 06:47:39+00",8.1,9.1,,42.8,-282,233,24,1016.59,42.2,0
"2020-12-14 06:52:39+00",5.8,6.8,,42.6,-171,182,23,1016.33,42.2,0
"2020-12-14 06:57:39+00",5.5,6.5,,42.5,-164,176,6,1016.17,42.2,0
"2020-12-14 07:02:39+00",5.0,6.0,,42.3,-107,185,6,1016.11,42.1,0
"2020-12-14 07:07:39+00",5.6,6.6,,42.1,-116,209,5,1016.02,42,0
"2020-12-14 07:12:39+00",5.1,6.1,,42,-117,186,9,1016.05,41.9,0
"2020-12-14 07:17:39+00",6.3,7.3,,42,-185,212,12,1016.11,41.9,0
"2020-12-14 07:22:39+00",6.6,7.6,,42,-80,281,8,1015.8,41.9,0
"2020-12-14 07:27:39+00",7.0,7.0,,41.9,-77,293,-1,1015.66,41.8,0
"2020-12-14 07:32:39+00",5.6,6.6,,41.8,-88,211,-2,1015.62,41.8,0
"2020-12-14 07:37:39+00",6.6,7.6,,42.1,-142,248,12,1015.9,41.8,0
"2020-12-14 07:42:39+00",6.2,7.2,,42.3,-166,223,8,1016.06,41.9,0
"2020-12-14 07:47:39+00",6.7,7.7,,42.6,-193,228,6,1016.21,42,0
"2020-12-14 07:52:39+00",6.4,8.4,,42.8,-198,200,18,1016.31,42.3,0
"2020-12-14 07:57:39+00",8.0,9.0,,43.1,-292,201,19,1016.33,42.5,0
"2020-12-14 08:02:39+00",7.9,8.9,,43.4,-284,211,18,1016.27,42.8,0
"2020-12-14 08:07:39+00",7.4,8.4,,43.4,-235,232,11,1016.05,42.9,0
"2020-12-14 08:12:39+00",6.8,7.8,,43.4,-213,228,18,1016.06,43,0
"2020-12-14 08:17:39+00",8.7,9.7,,43.3,-251,294,15,1016.02,43,0
"2020-12-14 08:22:39+00",9.6,11.6,,43.3,-257,341,3,1015.82,43,0
"2020-12-14 08:27:39+00",8.1,10.1,,43.4,-194,300,17,1015.78,43,0
"2020-12-14 08:32:39+00",8.0,9.0,,43.7,-173,317,6,1015.84,43.1,0
"2020-12-14 08:37:39+00",8.0,9.0,,43.8,-167,306,17,1015.7,43.3,0
"2020-12-14 08:42:39+00",7.8,9.8,,43.8,-153,308,17,1015.62,43.3,0
"2020-12-14 08:47:39+00",8.1,8.1,,43.8,-135,329,6,1015.64,43.4,0
"2020-12-14 08:52:39+00",6.9,8.9,,43.8,-70,290,14,1015.69,43.4,0
"2020-12-14 08:57:39+00",7.4,8.4,,43.9,-140,281,19,1015.86,43.4,0
"2020-12-14 09:02:39+00",7.9,9.9,,43.9,-61,333,9,1015.58,43.5,0
"2020-12-14 09:07:39+00",7.6,8.6,,43.9,-32,327,4,1015.45,43.5,0
"2020-12-14 09:12:39+00",7.3,9.3,,44,-109,299,12,1015.61,43.5,0
"2020-12-14 09:17:39+00",7.4,8.4,,44,-19,332,6,1015.36,43.6,0
"2020-12-14 09:22:39+00",8.5,9.5,,44.1,-29,367,8,1015.23,43.6,0
"2020-12-14 09:27:39+00",9.6,11.6,,44.1,31,413,6,1015.02,43.6,0
"2020-12-14 09:32:39+00",7.6,8.6,,44,-51,333,1,1015.19,43.6,0
"2020-12-14 09:37:39+00",7.3,8.3,,44,-13,312,3,1015.06,43.6,0
"2020-12-14 09:42:39+00",6.5,7.5,,43.9,38,267,3,1014.77,43.5,0
"2020-12-14 09:47:39+00",7.8,8.8,,43.8,51,337,-3,1014.8,43.5,0
"2020-12-14 09:52:39+00",9.3,10.3,,43.8,152,375,-1,1014.39,43.4,0
"2020-12-14 09:57:39+00",7.4,8.4,,43.8,28,311,9,1014.74,43.4,0
"2020-12-14 10:02:39+00",8.2,9.2,,43.7,162,306,1,1014.2,43.3,0
"2020-12-14 10:07:39+00",8.4,10.4,,43.7,-21,368,8,1015.09,43.3,0
"2020-12-14 10:12:39+00",6.6,7.6,,43.9,14,280,6,1015.23,43.3,0
"2020-12-14 10:17:39+00",7.3,8.3,,43.9,-5,323,3,1015.24,43.4,0
"2020-12-14 10:22:39+00",6.8,7.8,,43.9,8,292,5,1015.21,43.4,0
"2020-12-14 10:27:39+00",6.0,8.0,,43.9,62,234,1,1014.97,43.4,0
"2020-12-14 10:32:39+00",5.9,6.9,,43.9,80,233,-7,1014.74,43.4,0
"2020-12-14 10:37:39+00",5.6,6.6,,43.9,84,220,-2,1014.92,43.5,0
"2020-12-14 10:42:39+00",5.1,6.1,,44,12,210,0,1015.08,43.5,0
"2020-12-14 10:47:39+00",6.0,7.0,,44,-33,253,3,1015.24,43.5,0
"2020-12-14 10:52:39+00",5.7,5.7,,44,-25,248,7,1015.08,43.5,0
"2020-12-14 10:57:39+00",4.0,5.0,,44,-15,166,3,1015.2,43.6,0
"2020-12-14 11:02:39+00",4.5,5.5,,43.9,69,170,-1,1014.93,43.5,0
"2020-12-14 11:07:39+00",5.2,6.2,,44,126,168,5,1014.65,43.5,0
"2020-12-14 11:12:39+00",5.0,6.0,,44,18,212,-2,1014.71,43.4,0
"2020-12-14 11:17:39+00",5.7,5.7,,44,-28,250,7,1014.73,43.4,0
"2020-12-14 11:22:39+00",4.2,5.2,,44,-50,174,3,1014.81,43.4,0
"2020-12-14 11:27:39+00",5.4,6.4,,43.8,-19,229,3,1014.66,43.4,0
"2020-12-14 11:32:39+00",5.2,6.2,,43.7,20,216,-3,1014.59,43.2,0
"2020-12-14 11:37:39+00",5.0,6.0,,43.7,104,187,0,1014.49,43.1,0
"2020-12-14 11:42:39+00",5.0,6.0,,43.9,130,155,8,1014.52,43.2,0
"2020-12-14 11:47:39+00",4.6,5.6,,44,63,176,0,1014.75,43.2,0
"2020-12-14 11:52:39+00",7.3,8.3,,43.9,102,296,-2,1014.34,43.3,0
"2020-12-14 11:57:39+00",1.5,1.5,,43.9,-19,-29,24,1015.16,43.3,0
"2020-12-14 12:02:39+00",5.4,6.4,,43.9,30,222,2,1014.88,43.4,0
"2020-12-14 12:07:39+00",7.3,8.3,,44,99,282,7,1014.78,43.4,0
"2020-12-14 12:12:39+00",10.5,11.5,,44,156,426,-9,1014.31,43.5,0
"2020-12-14 12:17:39+00",6.8,7.8,,44.1,151,247,-8,1014.48,43.6,0
"2020-12-14 12:22:39+00",8.1,9.1,,44,145,318,5,1014.12,43.7,0
"2020-12-14 12:27:39+00",6.5,7.5,,44,99,247,-2,1014.52,43.7,0
"2020-12-14 12:32:39+00",11.8,12.8,,44.1,153,482,-11,1013.77,43.8,0
"2020-12-14 12:37:39+00",10.7,15.7,,43.9,134,447,0,1013.16,43.7,0
"2020-12-14 12:42:39+00",10.0,12.0,,43.9,196,392,2,1013.9,43.7,0
"2020-12-14 12:47:39+00",9.9,11.9,,43.9,72,406,5,1014.14,43.7,0
"2020-12-14 12:52:39+00",10.4,12.4,,44,18,459,10,1014.46,43.7,0
"2020-12-14 12:57:39+00",5.5,7.5,,44.1,87,208,0,1014.59,43.8,0
"2020-12-14 13:02:39+00",12.2,13.2,,44.1,159,497,-3,1013.91,43.8,0
"2020-12-14 13:07:39+00",9.0,10.0,,44,174,342,0,1014.15,43.8,0
"2020-12-14 13:12:39+00",11.3,12.3,,43.9,171,462,-8,1014.17,43.5,0
"2020-12-14 13:17:39+00",7.4,9.4,,43.8,92,308,-1,1014.44,43.3,0
"2020-12-14 13:22:39+00",10.7,11.7,,43.7,211,435,-1,1013.97,42.9,0
"2020-12-14 13:27:39+00",11.9,13.9,,43.7,251,454,16,1013.57,42.9,0
"2020-12-14 13:32:39+00",12.1,13.1,,43.6,319,401,3,1013.44,42.8,0
"2020-12-14 13:37:39+00",11.6,13.6,,43.6,285,406,13,1013.54,42.6,0
"2020-12-14 13:42:39+00",11.8,13.8,,43.5,274,434,10,1013.61,42.5,0
"2020-12-14 13:47:39+00",12.6,14.6,,43.5,222,502,2,1013.6,42.4,0
"2020-12-14 13:52:39+00",13.4,14.4,,43.3,238,528,-3,1013.72,42.3,0
"2020-12-14 13:57:39+00",14.4,15.4,,43.3,326,532,-4,1013.45,42.2,0
"2020-12-14 14:02:39+00",12.2,15.2,,43.3,314,423,9,1013.36,42.3,0
"2020-12-14 14:07:39+00",14.7,16.7,,43.1,379,493,11,1013.23,42.2,0
"2020-12-14 14:12:39+00",16.1,18.1,,43,492,501,18,1013.08,42.2,0
"2020-12-14 14:17:39+00",14.6,16.6,,42.9,495,436,23,1012.96,42.1,0
"2020-12-14 14:22:39+00",11.2,13.2,,43,398,299,31,1013.11,42.1,0
"2020-12-14 14:27:39+00",14.5,16.5,,43.2,535,375,32,1012.96,42.2,0
"2020-12-14 14:32:39+00",11.6,13.6,,43.4,430,287,21,1013,42.3,0
"2020-12-14 14:37:39+00",10.1,12.1,,43.6,415,199,16,1013.01,42.6,0
"2020-12-14 14:42:39+00",10.0,12.0,,43.8,417,165,29,1012.97,42.8,0
"2020-12-14 14:47:39+00",9.5,10.5,,44.2,420,50,25,1012.94,43,0
"2020-12-14 14:52:39+00",11.8,13.8,,45,520,74,33,1013.02,43.4,0
"2020-12-14 14:57:39+00",8.7,9.7,,45.2,382,37,34,1013.08,43.6,0
"2020-12-14 15:02:39+00",10.8,11.8,,45.2,477,15,23,1013.01,43.9,0
"2020-12-14 15:07:39+00",9.8,10.8,,45.3,423,103,48,1012.8,44.1,0
"2020-12-14 15:12:39+00",8.9,9.9,,45.4,347,197,27,1012.94,44.2,0
"2020-12-14 15:17:39+00",8.9,9.9,,45.4,18,397,10,1012.93,44.3,0
"2020-12-14 15:22:39+00",11.9,13.9,,43.1,-178,486,24,1012.77,43.4,0
"2020-12-14 15:27:39+00",14.3,16.3,,42,-204,583,11,1012.6,42.5,0
"2020-12-14 15:32:39+00",14.2,17.2,,41.8,-135,612,12,1012.57,42.2,0
"2020-12-14 15:37:39+00",14.0,16.0,,41.5,-156,583,11,1012.48,41.8,0
"2020-12-14 15:42:39+00",11.6,14.6,,41.4,-94,499,30,1012.28,41.6,0
"2020-12-14 15:47:39+00",13.1,15.1,,41.3,-113,559,30,1012.17,41.4,0
"2020-12-14 15:52:39+00",14.7,16.7,,41.2,-58,639,16,1012.19,41.2,0
"2020-12-14 15:57:39+00",14.3,16.3,,41.2,-41,622,21,1011.97,41.1,0
"2020-12-14 16:02:39+00",13.8,15.8,,41.1,1,616,-3,1011.77,41,0
"2020-12-14 16:07:39+00",13.4,15.4,,41.2,35,571,-5,1011.59,40.9,0
"2020-12-14 16:12:39+00",13.4,16.4,,41.2,3,591,18,1011.58,41,0
"2020-12-14 16:17:39+00",13.9,16.9,,41.3,9,613,25,1011.57,41.1,0
"2020-12-14 16:22:39+00",16.2,19.2,,41.4,-20,713,20,1011.59,41.1,0
"2020-12-14 16:27:39+00",15.2,17.2,,41.4,-13,679,12,1011.55,41.2,0
"2020-12-14 16:32:39+00",15.5,19.5,,41.4,-6,672,22,1011.35,41.2,0
"2020-12-14 16:37:39+00",12.6,13.6,,41.5,25,550,16,1011.43,41.2,0
"2020-12-14 16:42:39+00",13.8,15.8,,41.6,19,616,10,1011.35,41.4,0
"2020-12-14 16:47:39+00",15.7,17.7,,41.7,85,680,-14,1011.07,41.4,0
"2020-12-14 16:52:39+00",15.1,18.1,,41.8,76,647,1,1011.03,41.5,0
"2020-12-14 16:57:39+00",13.6,16.6,,41.9,84,596,0,1010.94,41.6,0
"2020-12-14 17:02:39+00",14.0,16.0,,41.9,122,584,2,1010.88,41.7,0
"2020-12-14 17:07:39+00",13.2,16.2,,41.9,65,572,12,1010.8,41.7,0
"2020-12-14 17:12:39+00",12.8,14.8,,41.8,66,542,4,1010.83,41.6,0
"2020-12-14 17:17:39+00",14.9,16.9,,41.8,92,637,-4,1010.69,41.6,0
"2020-12-14 17:22:39+00",13.4,16.4,,41.8,71,565,-1,1010.66,41.6,0
"2020-12-14 17:27:39+00",14.8,18.8,,41.7,81,629,7,1010.59,41.6,0
"2020-12-14 17:32:39+00",14.3,16.3,,41.7,4,640,5,1010.54,41.6,0
"2020-12-14 17:37:39+00",12.6,13.6,,41.7,-5,560,12,1010.44,41.6,0
"2020-12-14 17:42:39+00",14.6,16.6,,41.8,66,644,-4,1010.36,41.7,0
"2020-12-14 17:47:39+00",11.9,13.9,,41.8,38,523,15,1010.26,41.7,0
"2020-12-14 17:52:39+00",12.1,14.1,,41.9,38,536,4,1010.07,41.8,0
"2020-12-14 17:57:39+00",12.1,13.1,,42.1,78,518,-1,1009.9,42,0
"2020-12-14 18:02:39+00",11.1,13.1,,42.1,112,461,-1,1009.63,42,0
"2020-12-14 18:07:39+00",9.4,11.4,,42.1,91,388,1,1009.53,42,0
"2020-12-14 18:12:39+00",7.9,9.9,,42.2,100,317,19,1009.4,42.1,0
"2020-12-14 18:17:39+00",9.9,11.9,,42.3,111,418,-5,1009.45,42.2,0
"2020-12-14 18:22:39+00",8.7,9.7,,42.3,51,385,8,1009.29,42.3,0
"2020-12-14 18:27:39+00",12.3,14.3,,42.3,102,501,-12,1009.14,42.3,0
"2020-12-14 18:32:39+00",10.5,12.5,,42.4,98,429,-9,1009.16,42.2,0
"2020-12-14 18:37:39+00",10.2,13.2,,42.4,81,417,13,1009.01,42.3,0
"2020-12-14 18:42:39+00",13.3,15.3,,42.4,39,571,7,1009.18,42.3,0
"2020-12-14 18:47:39+00",13.0,16.0,,42.3,20,584,28,1009.09,42.2,0
"2020-12-14 18:52:39+00",17.3,18.3,,42,11,762,3,1008.99,42,0
"2020-12-14 18:57:39+00",14.9,17.9,,41.9,27,634,24,1008.86,41.9,0
"2020-12-14 19:02:39+00",14.3,16.3,,41.9,6,647,15,1008.94,41.8,0
"2020-12-14 19:07:39+00",14.7,18.7,,41.8,-20,650,16,1009.41,41.8,0
"2020-12-14 19:12:39+00",14.0,17.0,,41.7,-27,620,18,1009.76,41.6,0
"2020-12-14 19:17:39+00",15.2,17.2,,41.6,-35,681,16,1009.4,41.5,0
"2020-12-14 19:22:39+00",15.5,19.5,,41.5,-39,691,22,1009.08,41.4,0
"2020-12-14 19:27:39+00",12.6,14.6,,41.4,-67,558,9,1009.25,41.3,0
"2020-12-14 19:32:39+00",15.2,17.2,,41.4,-132,648,9,1009.37,41.3,0
"2020-12-14 19:37:39+00",14.3,16.3,,41.3,-81,629,20,1009.2,41.1,0
"2020-12-14 19:42:39+00",15.7,18.7,,41.1,4,706,4,1008.62,41,0
"2020-12-14 19:47:39+00",16.4,19.4,,40.9,100,697,13,1007.89,40.8,0
"2020-12-14 19:52:39+00",14.1,17.1,,40.9,28,634,10,1008.15,40.7,0
"2020-12-14 19:57:39+00",13.6,17.6,,40.9,-76,598,19,1008.9,40.7,0
"2020-12-14 20:02:39+00",13.8,17.8,,40.8,-50,605,15,1008.89,40.6,0
"2020-12-14 20:07:39+00",15.5,17.5,,40.7,-157,648,12,1009.17,40.5,0
"2020-12-14 20:12:39+00",14.1,16.1,,40.7,-221,575,35,1009.44,40.4,0
"2020-12-14 20:17:39+00",17.3,21.3,,40.5,-360,665,20,1009.66,40.2,0
"2020-12-14 20:22:39+00",18.1,21.1,,40.2,-293,737,35,1009.63,40,0
"2020-12-14 20:27:39+00",16.7,19.7,,40,-248,706,22,1009.48,39.8,0
"2020-12-14 20:32:39+00",15.9,18.9,,40,-137,681,26,1009.41,39.7,0
"2020-12-14 20:37:39+00",17.7,19.7,,39.9,-150,768,13,1009.42,39.6,0
"2020-12-14 20:42:39+00",18.4,21.4,,39.9,-192,783,16,1009.48,39.5,0
"2020-12-14 20:47:39+00",15.8,20.8,,39.8,-153,687,18,1009.42,39.5,0
"2020-12-14 20:52:39+00",17.6,18.6,,39.8,-184,758,8,1009.51,39.4,0
"2020-12-14 20:57:39+00",16.3,20.3,,39.8,-179,708,6,1009.24,39.5,0
"2020-12-14 21:02:39+00",14.8,17.8,,39.8,-156,627,17,1009.03,39.4,0
"2020-12-14 21:07:39+00",18.8,21.8,,39.6,-184,801,26,1009.12,39.3,0
"2020-12-14 21:12:39+00",16.2,19.2,,39.5,-161,688,13,1009.27,39.2,0
"2020-12-14 21:17:39+00",18.3,20.3,,39.5,-286,739,32,1009.32,39.1,0
"2020-12-14 21:22:39+00",18.4,21.4,,39.4,-246,755,18,1009.42,38.8,0
"2020-12-14 21:27:39+00",18.6,22.6,,39.3,-249,774,20,1009.79,38.7,0
"2020-12-14 21:32:39+00",16.2,19.2,,39.3,-276,653,30,1009.93,38.7,0
"2020-12-14 21:37:39+00",15.7,18.7,,39.2,-257,634,27,1010.14,38.8,0
"2020-12-14 21:42:39+00",16.2,22.2,,39.3,-260,642,32,1010.16,38.7,0
"2020-12-14 21:47:39+00",16.5,18.5,,39.3,-363,615,47,1010.33,38.7,0
"2020-12-14 21:52:39+00",15.2,20.2,,39.3,-318,546,60,1010.33,38.6,0
"2020-12-14 21:57:39+00",15.6,18.6,,39.2,-377,576,41,1010.52,38.5,0
"2020-12-14 22:02:39+00",17.5,22.5,,39.2,-438,640,56,1010.54,38.6,0
"2020-12-14 22:07:39+00",19.2,22.2,,39.2,-441,733,41,1010.75,38.5,0
"2020-12-14 22:12:39+00",18.3,24.3,,38.9,-420,696,44,1010.81,38.4,0
"2020-12-14 22:17:39+00",17.8,20.8,,38.8,-420,637,25,1010.92,38.3,0
"2020-12-14 22:22:39+00",16.4,18.4,,38.8,-402,587,42,1011.12,38.4,0
"2020-12-14 22:27:39+00",18.8,20.8,,38.8,-436,690,37,1011.19,38.4,0
"2020-12-14 22:32:39+00",15.4,19.4,,38.7,-459,510,57,1011.27,38.3,0
"2020-12-14 22:37:39+00",15.4,17.4,,38.6,-421,534,32,1011.36,38.2,0
"2020-12-14 22:42:39+00",16.4,20.4,,38.5,-464,567,30,1011.44,38,0
"2020-12-14 22:47:39+00",18.7,21.7,,38.5,-465,686,38,1011.51,38,0
"2020-12-14 22:52:39+00",20.1,23.1,,38.4,-528,691,41,1011.61,37.8,0
"2020-12-14 22:57:39+00",17.6,19.6,,38.2,-481,587,36,1011.63,37.7,0
"2020-12-14 23:02:39+00",18.2,20.2,,38.1,-510,612,41,1011.75,37.7,0
"2020-12-14 23:07:39+00",22.0,25.0,,38.2,-689,671,62,1011.73,37.8,0
"2020-12-14 23:12:39+00",21.9,25.9,,38.1,-602,731,53,1011.84,37.7,0
"2020-12-14 23:17:39+00",20.4,23.4,,38,-603,679,54,1011.96,37.7,0
"2020-12-14 23:22:39+00",17.2,19.2,,37.9,-525,570,50,1012.07,37.6,0
"2020-12-14 23:27:39+00",21.0,23.0,,37.9,-616,680,54,1012.24,37.6,0
"2020-12-14 23:32:39+00",16.6,18.6,,37.6,-473,556,32,1012.03,37.3,0
"2020-12-14 23:37:39+00",19.1,21.1,,37.6,-584,621,48,1012.39,37.3,0
"2020-12-14 23:42:39+00",18.6,22.6,,37.6,-510,641,54,1012.63,37.2,0
"2020-12-14 23:47:39+00",16.2,18.2,,37.4,-450,550,50,1012.72,37.1,0
"2020-12-14 23:52:39+00",14.2,18.2,,37.2,-391,493,44,1012.77,37,0
"2020-12-14 23:57:39+00",18.9,20.9,,37.3,-552,628,59,1012.97,36.9,0
